User: anonymous   Login
Location: Newark
(48.1500°N, 13.1167°E)
Time: 03:18:11
(UTC+00:00)
Language:

CUTE-I - Orbit

View from above orbital plane
View from above orbital plane
View from above satellite
View from above satellite

Ground track
Ground track

The orbit data is extracted from the following two-line orbital elements,

1 27844U 03031E   21332.45476716  .00000114  00000-0  70712-4 0  9990
2 27844  98.6808 338.1864 0009293 329.5207  30.5430 14.22353719955292
Epoch (UTC): 28 November 2021 10:54:51
Eccentricity: 0.0009293
inclination: 98.6808°
perigee height: 811 km
apogee height: 824 km
right ascension of ascending node: 338.1864°
argument of perigee: 329.5207°
revolutions per day: 14.22353719
mean anomaly at epoch: 30.5430°
orbit number at epoch: 95529

The dashed part of the orbit path shows where the satellite is in the earth's shadow,  

DLR